Flag for United Kingdom Weather past 2 weeks in Loughton, England, United Kingdom

Now
62 °F

Cool.


Feels Like: 62 °F
Forecast: 54 / 62 °F
Wind: 5 mph from North

Location: Gravesend-Broadness

Current Time: Sep 20, 2014 at 7:48:28 AM

Latest Report: Sep 20, 2014 at 6:00 AM


Visibility: N/A

Pressure: 29.93 "Hg

Humidity: 100%

Dew point: 62 °F

Location of LoughtonLocation

Historic Weather in Loughton — Graph

°F

Loughton temperature yesterday

Maximum temperature yesterday: 76 °F (at 3:00 PM)
Minimum temperature yesterday: 60 °F (at 7:00 AM)
Average temperature yesterday: 67 °F

Past Weeks' High & Low Weather Summary

 TemperatureHumidityPressure
High77 °F (Sep 18, 2:00 PM)100% (Sep 7, 9:00 AM)30.32 "Hg (Sep 7, 9:00 AM)
Low46 °F (Sep 10, 7:00 AM)42% (Sep 8, 3:00 PM)29.78 "Hg (Sep 18, 4:00 PM)
Average61 °F84%30.05 "Hg
* Reported Sep 5 6:00 AM — Sep 20 6:00 AM, Loughton, Weather by CustomWeather, © 2014

Note: Actual official high and low records may vary slightly from our data, if they occured in-between our weather recording intervals... More about our weather records

Advertising

Loughton weather history for previous 24 hours

 ConditionsComfort  
Time TempWeatherWind HumidityBarometerVisibility
6:00 AM
Sep 20
62 °FCool.5 mph100%29.93 "HgN/A
5:00 AM63 °FMild.6 mph100%29.93 "HgN/A
4:00 AM63 °FMild.5 mph99%29.92 "HgN/A
3:00 AM62 °FCool.1 mph100%29.92 "HgN/A
2:00 AM61 °FCool.5 mph100%29.92 "HgN/A
1:00 AM62 °FMild.5 mph100%29.92 "HgN/A
12:00 AM61 °FCool.3 mph99%29.92 "HgN/A
11:00 PM
Sep 19
62 °FCool.3 mph99%29.91 "HgN/A
10:00 PM63 °FMild.7 mph99%29.92 "HgN/A
9:00 PM63 °FMild.6 mph98%29.90 "HgN/A
8:00 PM64 °FMild.7 mph96%29.89 "HgN/A
7:00 PM68 °FMild.5 mph88%29.86 "HgN/A
6:00 PM72 °FMild.6 mph80%29.85 "HgN/A
5:00 PM74 °FMild.6 mph75%29.84 "HgN/A
4:00 PM75 °FMild.6 mph70%29.85 "HgN/A
3:00 PM76 °FMild.6 mph69%29.85 "HgN/A
2:00 PM74 °FMild.7 mph69%29.85 "HgN/A
1:00 PM73 °FMild.7 mph76%29.85 "HgN/A
12:00 PM72 °FMild.6 mph77%29.86 "HgN/A
11:00 AM68 °FMild.7 mph85%29.85 "HgN/A
10:00 AM68 °FMild.6 mph88%29.86 "HgN/A
9:00 AM63 °FMild.6 mph100%29.85 "HgN/A
8:00 AM61 °FCool.2 mph100%29.83 "HgN/A
7:00 AM60 °FCool.2 mph99%29.82 "HgN/A
Weather by CustomWeather, © 2014

See weather overviewHow to use our weather pages